sat.trackr.live / text

‹ back to catalog

KUIPER-00214

NORAD 67778 · 2026-030Q

PAYLOAD ACTIVE UNKNOWN

§ Identity

Operator
Country
US
Launch date
2026-02-12
Launch site
FRGUI
Launch vehicle
Mass (kg)
RCS (m²)

External: N2YO · Heavens-Above · Gunter

§ Orbital elements

Epoch: 2026-05-24T22:30:11.638080Z

Period
97.30 min
Inclination
51.8987°
Eccentricity
0.0000390
Mean motion
14.79948335 rev/d
Perigee alt
629.2 km
Apogee alt
629.8 km
Semi-major
7,007.6 km
B*
3.7241e-4
RAAN
226.0238°
Arg perigee
113.1723°
Mean anomaly
246.9280°
Rev number
1,660

§ Raw data

KUIPER-002141 67778U 26030Q   26144.93763470  .00002620  00000+0  37241-3 0  99912 67778  51.8987 226.0238 0000390 113.1723 246.9280 14.79948335 16605

JSON: /api/v1/satellites/67778 · /tle

For live sub-satellite position, see the globe view (requires WebGL).

§ Visibility from observer

Set your observer location to see the next 7 days of passes ≥ 10°. The values pass through the URL so the page stays shareable.

No JS? Fill the form by hand. The geolocation button needs JavaScript.